User: anonymous
Location: Unspecified
(0.0000°N, 0.0000°E)
Time: 09:01:14
(UTC+02:00)
Language:

Ariane 42L R/B - Orbit

View from above orbital plane
View from above orbital plane
View from above satellite
View from above satellite

Ground track
Ground track

The orbit data is extracted from the following two-line orbital elements,

1 26299U 00020B   14244.77715233  .00002096  00000-0  69571-3 0   427
2 26299 007.4869 086.3389 6056038 330.2273 030.7594 03.93093742177833
Epoch (UTC): 01 September 2014 18:39:05
Eccentricity: 0.6056038
inclination: 7.4869°
perigee height: 310 km
apogee height: 20851 km
right ascension of ascending node: 86.3389°
argument of perigee: 330.2273°
revolutions per day: 3.93093742
mean anomaly at epoch: 30.7594°
orbit number at epoch: 17783

The dashed part of the orbit path shows where the satellite is in the earth's shadow,  

DLR